Milford Square, PA

12:33 PM EST on December 06, 2016 (GMT -0500)
Quakertown

Weather History for KUKT - May, 2014

Change the Weather History Date:

Wednesday, May 7, 2014

  Actual Average (KABE) Record (KABE)
Temperature  
Mean Temperature 52 °F 57 °F  
Max Temperature 66 °F 69 °F 94 °F (1939)
Min Temperature 37 °F 45 °F 32 °F (1970)
Degree Days  
Heating Degree Days 14 8  
Month to date heating degree days 65  
Since 1 July heating degree days 5635  
Cooling Degree Days 0 1  
Month to date cooling degree days 1  
Year to date cooling degree days 6  
Growing Degree Days 2 (Base 50)    
Moisture  
Dew Point 35 °F    
Average Humidity 52    
Maximum Humidity 87    
Minimum Humidity 30    
Precipitation  
Precipitation 0.00 in 0.13 in 1.70 in (1942)
Month to date precipitation 0.86  
Year to date precipitation 13.54  
Snow  
Snow 0.00 in 0.00 in 0.00 in ()
Month to date snowfall 0.0  
Since 1 July snowfall 32.9  
Snow Depth -    
Sea Level Pressure  
Sea Level Pressure 30.19 in    
Wind  
Wind Speed 3 mph (SSE)    
Max Wind Speed 9 mph    
Max Gust Speed -    
Visibility 10 miles    
Events      
T = Trace of Precipitation, MM = Missing Value Source: NWS Daily Summary

Daily Weather History Graph

Daily Weather History Graph

Search for Another Location

Airport or City:

Trip Planner

Search our weather history database for the weather conditions in past years. The results will help you decide how hot, cold, wet, or windy it might be!

Date:

Astronomy

May. 07, 2014 Rise Set
Actual Time 5:53 AM EDT 8:03 PM EDT
Civil Twilight 5:23 AM EDT 8:33 PM EDT
Nautical Twilight 4:46 AM EDT 9:10 PM EDT
Astronomical Twilight 4:06 AM EDT 9:51 PM EDT
Moon 1:04 PM EDT (5/7) 1:52 AM EDT (5/7)
Length of Visible Light 15h 10m
Length of Day
14h 09m
First Quarter, 55% of the Moon is Illuminated
May 7
First Quarter
May 14
Full
May 21
Last Quarter
May 28
New
Jun 5
First Quarter

Hourly Weather History & Observations

Time (EDT) Temp. Dew Point Humidity Pressure Visibility Wind Dir Wind Speed Gust Speed Precip Events Conditions
12:15 AM 53.6 °F 28.4 °F 38% 30.11 in 10.0 mi North 3.5 mph - N/A   Clear
12:35 AM 53.6 °F 28.4 °F 38% 30.11 in 10.0 mi North 3.5 mph - N/A   Clear
12:55 AM 51.8 °F 30.2 °F 44% 30.12 in 10.0 mi NNE 5.8 mph - N/A   Clear
1:15 AM 51.8 °F 30.2 °F 44% 30.13 in 10.0 mi NNE 3.5 mph - N/A   Clear
1:35 AM 51.8 °F 30.2 °F 44% 30.13 in 10.0 mi North 3.5 mph - N/A   Clear
1:55 AM 50.0 °F 30.2 °F 47% 30.13 in 10.0 mi Calm Calm - N/A   Clear
2:15 AM 46.4 °F 32.0 °F 57% 30.13 in 10.0 mi Calm Calm - N/A   Clear
2:35 AM 44.6 °F 32.0 °F 61% 30.14 in 10.0 mi Calm Calm - N/A   Clear
2:55 AM 44.6 °F 32.0 °F 61% 30.14 in 10.0 mi Calm Calm - N/A   Clear
3:15 AM 41.0 °F 35.6 °F 81% 30.15 in 10.0 mi Calm Calm - N/A   Clear
3:35 AM 41.0 °F 33.8 °F 76% 30.15 in 10.0 mi Calm Calm - N/A   Clear
3:55 AM 41.0 °F 33.8 °F 76% 30.15 in 10.0 mi Calm Calm - N/A   Clear
4:15 AM 41.0 °F 35.6 °F 81% 30.16 in 10.0 mi Calm Calm - N/A   Clear
4:35 AM 39.2 °F 33.8 °F 81% 30.16 in 10.0 mi Calm Calm - N/A   Clear
4:55 AM 39.2 °F 33.8 °F 81% 30.16 in 10.0 mi Calm Calm - N/A   Clear
5:15 AM 39.2 °F 33.8 °F 81% 30.17 in 10.0 mi Calm Calm - N/A   Clear
5:35 AM 39.2 °F 33.8 °F 81% 30.17 in 10.0 mi Calm Calm - N/A   Clear
5:55 AM 39.2 °F 33.8 °F 81% 30.18 in 10.0 mi Calm Calm - N/A   Clear
6:15 AM 37.4 °F 33.8 °F 87% 30.18 in 10.0 mi Calm Calm - N/A   Clear
6:35 AM 39.2 °F 33.8 °F 81% 30.19 in 10.0 mi Calm Calm - N/A   Clear
6:55 AM 41.0 °F 33.8 °F 76% 30.19 in 10.0 mi Calm Calm - N/A   Clear
7:15 AM 44.6 °F 35.6 °F 71% 30.20 in 10.0 mi Calm Calm - N/A   Clear
7:35 AM 48.2 °F 33.8 °F 58% 30.21 in 10.0 mi Calm Calm - N/A   Clear
7:55 AM 50.0 °F 32.0 °F 50% 30.22 in 10.0 mi NE 4.6 mph - N/A   Clear
8:15 AM 53.6 °F 32.0 °F 44% 30.23 in 10.0 mi ENE 3.5 mph - N/A   Clear
8:35 AM 53.6 °F 32.0 °F 44% 30.24 in 10.0 mi East 5.8 mph - N/A   Unknown
8:55 AM 55.4 °F 32.0 °F 41% 30.25 in 10.0 mi ENE 3.5 mph - N/A   Clear
9:15 AM 55.4 °F 32.0 °F 41% 30.25 in 10.0 mi East 3.5 mph - N/A   Clear
9:35 AM 57.2 °F 32.0 °F 38% 30.24 in 10.0 mi ENE 4.6 mph - N/A   Clear
9:55 AM 57.2 °F 32.0 °F 38% 30.24 in 10.0 mi Calm Calm - N/A   Clear
10:15 AM 59.0 °F 32.0 °F 36% 30.25 in 10.0 mi Calm Calm - N/A   Clear
10:35 AM 59.0 °F 32.0 °F 36% 30.25 in 10.0 mi SW 3.5 mph - N/A   Clear
10:55 AM 60.8 °F 32.0 °F 34% 30.25 in 10.0 mi ESE 6.9 mph - N/A   Clear
11:15 AM 60.8 °F 32.0 °F 34% 30.25 in 10.0 mi ESE 5.8 mph - N/A   Clear
11:35 AM 60.8 °F 32.0 °F 34% 30.25 in 10.0 mi Calm Calm - N/A   Clear
11:55 AM 62.6 °F 32.0 °F 32% 30.25 in 10.0 mi ESE 3.5 mph - N/A   Clear
12:15 PM 62.6 °F 32.0 °F 32% 30.25 in 10.0 mi Calm Calm - N/A   Clear
12:35 PM 62.6 °F 32.0 °F 32% 30.24 in 10.0 mi Calm Calm - N/A   Clear
1:15 PM 64.4 °F 32.0 °F 30% 30.22 in 10.0 mi SE 3.5 mph - N/A   Clear
1:35 PM 66.2 °F 33.8 °F 30% 30.22 in 10.0 mi SSW 3.5 mph - N/A   Partly Cloudy
1:55 PM 64.4 °F 32.0 °F 30% 30.21 in 10.0 mi Calm Calm - N/A   Mostly Cloudy
2:15 PM 66.2 °F 33.8 °F 30% 30.20 in 10.0 mi SSW 3.5 mph - N/A   Partly Cloudy
2:35 PM 66.2 °F 33.8 °F 30% 30.20 in 10.0 mi South 6.9 mph - N/A   Mostly Cloudy
2:55 PM 66.2 °F 35.6 °F 32% 30.20 in 10.0 mi SSW 8.1 mph - N/A   Overcast
3:15 PM 64.4 °F 33.8 °F 32% 30.20 in 10.0 mi SW 9.2 mph - N/A   Overcast
3:35 PM 64.4 °F 32.0 °F 30% 30.20 in 10.0 mi SSW 5.8 mph - N/A   Overcast
3:55 PM 64.4 °F 35.6 °F 34% 30.19 in 10.0 mi SW 5.8 mph - N/A   Overcast
4:15 PM 64.4 °F 35.6 °F 34% 30.19 in 10.0 mi SSW 6.9 mph - N/A   Overcast
4:35 PM 64.4 °F 35.6 °F 34% 30.18 in 10.0 mi SSW 8.1 mph - N/A   Overcast
4:55 PM 64.4 °F 33.8 °F 32% 30.19 in 10.0 mi SSW 6.9 mph - N/A   Mostly Cloudy
5:15 PM 62.6 °F 35.6 °F 37% 30.19 in 10.0 mi South 6.9 mph - N/A   Mostly Cloudy
5:35 PM 62.6 °F 35.6 °F 37% 30.18 in 10.0 mi South 6.9 mph - N/A   Overcast
5:55 PM 60.8 °F 39.2 °F 45% 30.18 in 10.0 mi South 5.8 mph - N/A   Overcast
6:15 PM 60.8 °F 37.4 °F 42% 30.19 in 10.0 mi SSW 5.8 mph - N/A   Overcast
6:35 PM 59.0 °F 37.4 °F 45% 30.20 in 10.0 mi South 5.8 mph - N/A   Overcast
6:55 PM 59.0 °F 37.4 °F 45% 30.20 in 10.0 mi SSW 5.8 mph - N/A   Overcast
7:15 PM 59.0 °F 39.2 °F 48% 30.20 in 10.0 mi South 4.6 mph - N/A   Overcast
7:35 PM 59.0 °F 41.0 °F 51% 30.20 in 10.0 mi South 3.5 mph - N/A   Overcast
7:55 PM 57.2 °F 39.2 °F 51% 30.20 in 10.0 mi SSE 3.5 mph - N/A   Mostly Cloudy
8:15 PM 57.2 °F 41.0 °F 55% 30.21 in 10.0 mi South 3.5 mph - N/A   Mostly Cloudy
8:35 PM 57.2 °F 42.8 °F 59% 30.20 in 10.0 mi South 3.5 mph - N/A   Overcast
8:55 PM 57.2 °F 42.8 °F 59% 30.20 in 10.0 mi Calm Calm - N/A   Mostly Cloudy
9:15 PM 55.4 °F 42.8 °F 63% 30.20 in 10.0 mi Calm Calm - N/A   Overcast
9:35 PM 55.4 °F 42.8 °F 63% 30.20 in 10.0 mi Calm Calm - N/A   Overcast
9:55 PM 55.4 °F 46.4 °F 72% 30.21 in 10.0 mi Calm Calm - N/A   Overcast
10:15 PM 55.4 °F 46.4 °F 72% 30.21 in 10.0 mi Calm Calm - N/A   Overcast
10:35 PM 55.4 °F 46.4 °F 72% 30.20 in 10.0 mi Calm Calm - N/A   Overcast
10:55 PM 55.4 °F 44.6 °F 67% 30.20 in 10.0 mi Calm Calm - N/A   Overcast
11:15 PM 55.4 °F 44.6 °F 67% 30.19 in 10.0 mi Calm Calm - N/A   Overcast
11:35 PM 55.4 °F 44.6 °F 67% 30.19 in 10.0 mi Calm Calm - N/A   Overcast
11:55 PM 55.4 °F 46.4 °F 72% 30.19 in 10.0 mi Calm Calm - N/A   Overcast